[[{"header":{"parameterUnit":"m.s-1","parameterCategory":1,"la1":30.2991,"la2":30.254,"lo1":-89.0895,"lo2":-89.0444,"dx":0.0017,"dy":0.0017,"nx":28,"ny":28,"refTime":"2022-11-21T15:00:00:Z","depth":0,"parameterNumber":2,"parameterNumberName":"U-component_of_WINDS"},"data":[0,0,0,0,0,0,0,0,0,0,0,0,0,0,0,0,0,0,0,0,0,0,0,0,0,0,0,0,0,0,0,0,0,0,0,0,0,0,0,0,0,0,0,0,0,0,0,0,0,0,0,0,0,0,0,0,0,0,-2.5887,-2.5887,0,-2.5953,-2.5954,-2.5955,-2.5868,-2.5864,-2.5861,-2.5858,-2.5929,-2.5934,-2.5939,0,0,0,0,0,0,0,0,0,0,0,0,0,-2.5685,-2.5689,-2.5887,-2.5887,-2.5888,-2.5953,-2.5954,-2.5955,-2.5868,-2.5864,-2.586,-2.5857,-2.5928,-2.5934,-2.5939,0,0,0,0,0,0,0,0,0,0,0,0,0,-2.5765,-2.5691,-2.5886,-2.5853,-2.585,-2.5953,-2.5954,-2.5955,-2.5869,-2.5864,-2.5859,-2.5855,-2.5926,-2.5933,-2.594,-2.608,0,0,-2.5962,-2.5966,0,0,0,0,0,0,0,0,-2.576,-2.5772,-2.5857,-2.5855,-2.5853,-2.5897,-2.5909,-2.5997,-2.587,-2.5862,-2.5858,-2.5853,-2.5923,-2.593,-2.5953,-2.6084,-2.6087,-2.5963,-2.5968,-2.5971,-2.5973,0,0,0,0,0,0,0,-2.5755,-2.5769,-2.5913,-2.5858,-2.5856,-2.5835,-2.5841,-2.5926,-2.5918,-2.5862,-2.5856,-2.5865,-2.5921,-2.5946,-2.5954,-2.6088,-2.5963,-2.5969,-2.5974,-2.5977,-2.6338,-2.6343,0,0,0,0,0,0,-2.5753,-2.5765,-2.5911,-2.5915,-2.5794,-2.5842,-2.5849,-2.5888,-2.5917,-2.5917,-2.5869,-2.5861,-2.5936,-2.5946,-2.5956,-2.6124,-2.5971,-2.5977,-2.5982,-2.6333,-2.6339,-2.6345,0,0,0,0,0,0,-2.5749,-2.5767,-2.5908,-2.5838,-2.5855,-2.5851,-2.5895,-2.5892,-2.5917,-2.5922,-2.5921,-2.5896,-2.5933,-2.5946,-2.605,-2.6125,-2.5981,-2.5987,-2.6326,-2.6334,-2.6342,-2.6459,0,0,0,0,0,0,-2.5744,-2.5766,-2.5819,-2.584,-2.5859,-2.6001,-2.59,-2.5896,-2.593,-2.5919,-2.5948,-2.5948,-2.593,-2.604,-2.6058,-2.6132,-2.5993,-2.632,-2.633,-2.6339,-2.6449,-2.647,-2.6488,0,0,0,0,0,-2.5737,-2.585,-2.5822,-2.584,-2.5925,-2.6005,-2.6016,-2.5993,-2.5936,-2.599,-2.5993,-2.5947,-2.6113,-2.6051,-2.607,-2.6149,-2.6315,-2.6327,-2.6338,-2.644,-2.6466,-2.6488,0,0,0,0,0,0,-2.5839,-2.5852,-2.5821,-2.5944,-2.5974,-2.599,-2.6058,-2.6021,-2.6069,-2.6057,-2.6027,-2.6034,-2.6146,-2.6157,-2.6088,-2.6286,-2.6205,-2.6221,-2.6275,-2.63,-2.6319,-2.6316,-2.5999,0,0,0,0,0,-2.5875,-2.5939,-2.5947,-2.6055,-2.6071,-2.6062,-2.6096,-2.6076,-2.6106,-2.6118,-2.6129,-2.6161,-2.622,-2.626,-2.6315,-2.6448,-2.6454,-2.6512,-2.6531,-2.6548,-2.6563,-2.6636,-2.6662,-2.6383,-2.6383,-2.6383,0,0,-2.5952,-2.5967,-2.6009,-2.6076,-2.6096,-2.6164,-2.6073,-2.6149,-2.6199,-2.613,-2.6229,-2.6238,-2.6271,-2.6392,-2.6445,-2.6404,-2.6641,-2.6563,-2.6576,-2.6582,-2.665,-2.6677,-2.67,-2.6391,-2.639,-2.6388,0,0,-2.6127,-2.6144,-2.6236,-2.6258,-2.629,-2.6283,-2.6305,-2.6327,-2.633,-2.6429,-2.6379,-2.6438,-2.6541,-2.6567,-2.6594,-2.6777,-2.6737,-2.6796,-2.69,-2.6972,-2.6994,-2.7013,-2.708,-2.7105,-2.681,-2.681,-2.6811,0,-2.6218,-2.6318,-2.6288,-2.6367,-2.6398,-2.6337,-2.6431,-2.6454,-2.6504,-2.6527,-2.648,-2.6608,-2.6626,-2.6752,-2.6797,-2.6819,-2.6845,-2.6794,-2.6993,-2.7012,-2.7029,-2.7093,-2.7119,-2.6817,-2.6817,-2.6816,-2.6815,0,-2.643,-2.6499,-2.657,-2.6618,-2.6657,-2.6743,-2.6727,-2.677,-2.6745,-2.6743,-2.6845,-2.6864,-2.6922,-2.695,-2.6927,-2.7073,-2.7047,-2.6997,-2.6915,-2.7064,-2.7123,-2.7147,-2.6828,-2.6825,-2.6823,-2.6821,0,0,-2.6673,-2.6703,-2.673,-2.6751,-2.6781,-2.6835,-2.6918,-2.6974,-2.7012,-2.7047,-2.7117,-2.7205,-2.7159,-2.7189,-2.7168,-2.7231,-2.7377,-2.7173,-2.7173,-2.7212,-2.7541,-2.758,-2.7609,-2.7349,-2.7354,-2.7357,-2.7538,0,-2.685,-2.6993,-2.6969,-2.7109,-2.7173,-2.7115,-2.7188,-2.7215,-2.7215,-2.727,-2.727,-2.7333,-2.7267,-2.7285,-2.7343,-2.7347,-2.7443,-2.7333,-2.7416,-2.7419,-2.7412,-2.7639,-2.7681,-2.7852,-2.7561,-2.7565,-2.7568,0,-2.7075,-2.7118,-2.7265,-2.7285,-2.7311,-2.7377,-2.7426,-2.7479,-2.7509,-2.7504,-2.7538,-2.7505,-2.7589,-2.7504,-2.7619,-2.7545,-2.7577,-2.7584,-2.759,-2.7599,-2.7505,-2.7657,-2.7905,-2.7932,-2.7604,-2.7601,-2.7599,0,-2.7241,-2.7335,-2.7435,-2.7455,-2.7481,-2.7528,-2.7541,-2.7566,-2.7601,-2.7644,-2.7667,-2.7719,-2.7749,-2.779,-2.7773,-2.7712,-2.7893,-2.7806,-2.7893,-2.7894,-2.7936,-2.7934,-2.8195,-2.7953,-2.7952,-2.7952,-2.7951,0,-2.7442,-2.7535,-2.751,-2.7572,-2.7674,-2.7644,-2.7746,-2.7752,-2.7774,-2.7837,-2.7789,-2.7849,-2.7821,-2.7879,-2.7866,-2.7965,-2.7978,-2.7978,-2.7974,-2.7984,-2.7984,-2.8006,-2.7995,-2.7958,-2.7957,-2.7956,-2.7955,0,-2.7646,-2.7633,-2.7738,-2.7753,-2.7759,-2.7834,-2.7847,-2.7905,-2.79,-2.798,-2.7997,-2.7991,-2.8057,-2.8043,-2.8115,-2.8106,-2.8231,-2.8211,-2.8221,-2.8218,-2.8306,-2.8299,-2.8593,-2.8631,-2.8362,-2.8364,-2.8366,0,-2.7776,-2.7846,-2.7868,-2.7907,-2.7923,-2.7985,-2.802,-2.7993,-2.8032,-2.8071,-2.8125,-2.8186,-2.8234,-2.8342,-2.8344,-2.84,-2.8382,-2.8481,-2.839,-2.8398,-2.8386,-2.8383,-2.8391,-2.85,-2.8503,-2.8506,-2.8508,0,-2.8011,-2.8,-2.8053,-2.8104,-2.8147,-2.8186,-2.822,-2.8254,-2.823,-2.8276,-2.8342,-2.8379,-2.8453,-2.8515,-2.8566,-2.858,-2.8541,-2.8536,-2.8559,-2.8572,-2.8576,-2.8577,-2.8273,-2.853,-2.8528,-2.8526,-2.8525,-2.8524,-2.8183,-2.8243,-2.8268,-2.8328,-2.8351,-2.8384,-2.8439,-2.8441,-2.8496,-2.8553,-2.8533,-2.861,-2.8637,-2.8701,-2.8721,-2.8781,-2.8744,-2.8777,-2.8786,-2.8796,-2.8808,-2.8564,-2.8789,-2.8789,-2.8788,-2.8788,-2.8787,0,-2.8417,-2.843,-2.8485,-2.8534,-2.8582,-2.8538,-2.8574,-2.8617,-2.8685,-2.8713,-2.876,-2.8837,-2.8897,-2.8903,-2.8959,-2.9006,-2.899,-2.9022,-2.902,-2.9024,-2.8836,-2.8811,-2.9034,-2.9034,-2.9034,-2.9034,-2.9034,-2.9034,-2.8544,-2.8643,-2.8636,-2.8745,-2.8757,-2.8831,-2.8855,-2.8886,-2.8908,-2.8996,-2.9045,-2.9048,-2.9068,-2.9125,-2.9178,-2.9178,-2.9202,-2.9242,-2.9236,-2.9061,-2.9037,-2.9014,-2.899,-2.9247,-2.9247,-2.9419,-2.942,-2.9422]},{"header":{"parameterUnit":"m.s-1","parameterCategory":1,"la1":30.2991,"la2":30.254,"lo1":-89.0895,"lo2":-89.0444,"dx":0.0017,"dy":0.0017,"nx":28,"ny":28,"refTime":"2022-11-21T15:00:00:Z","depth":0,"parameterNumber":3,"parameterNumberName":"V-component_of_WINDS"},"data":[0,0,0,0,0,0,0,0,0,0,0,0,0,0,0,0,0,0,0,0,0,0,0,0,0,0,0,0,0,0,0,0,0,0,0,0,0,0,0,0,0,0,0,0,0,0,0,0,0,0,0,0,0,0,0,0,0,0,-3.391,-3.391,0,-3.396,-3.396,-3.3961,-3.3914,-3.3912,-3.391,-3.3908,-3.3958,-3.3961,-3.3964,0,0,0,0,0,0,0,0,0,0,0,0,0,-3.377,-3.3773,-3.391,-3.391,-3.3911,-3.396,-3.396,-3.3961,-3.3914,-3.3912,-3.391,-3.3908,-3.3957,-3.3961,-3.3965,0,0,0,0,0,0,0,0,0,0,0,0,0,-3.3827,-3.3774,-3.391,-3.3893,-3.3893,-3.396,-3.3961,-3.3961,-3.3915,-3.3912,-3.3909,-3.3907,-3.3956,-3.3961,-3.3965,-3.405,0,0,-3.3979,-3.3981,0,0,0,0,0,0,0,0,-3.3824,-3.3832,-3.3895,-3.3895,-3.3894,-3.3928,-3.3929,-3.3991,-3.3916,-3.3906,-3.3908,-3.3905,-3.395,-3.3955,-3.3971,-3.4052,-3.4055,-3.398,-3.3982,-3.3984,-3.3986,0,0,0,0,0,0,0,-3.382,-3.3829,-3.3929,-3.3896,-3.3895,-3.3883,-3.3888,-3.3941,-3.3943,-3.3907,-3.3904,-3.391,-3.3949,-3.3966,-3.3972,-3.4055,-3.3979,-3.3984,-3.3986,-3.3988,-3.4207,-3.421,0,0,0,0,0,0,-3.3818,-3.3826,-3.3928,-3.3931,-3.3851,-3.3888,-3.3893,-3.392,-3.3943,-3.3944,-3.3913,-3.3908,-3.396,-3.3966,-3.3973,-3.4073,-3.3984,-3.3989,-3.3991,-3.4204,-3.4208,-3.4211,0,0,0,0,0,0,-3.3815,-3.3827,-3.3926,-3.3878,-3.3889,-3.3893,-3.3923,-3.3922,-3.3939,-3.3947,-3.3947,-3.393,-3.3958,-3.3967,-3.4031,-3.4074,-3.3991,-3.3995,-3.4201,-3.4205,-3.421,-3.4275,0,0,0,0,0,0,-3.3811,-3.3827,-3.386,-3.3879,-3.3892,-3.3984,-3.3926,-3.3925,-3.3948,-3.3942,-3.3963,-3.3964,-3.3956,-3.4024,-3.4036,-3.4079,-3.3999,-3.4197,-3.4203,-3.4208,-3.4269,-3.4281,-3.4292,0,0,0,0,0,-3.3806,-3.3876,-3.3862,-3.3874,-3.3934,-3.3987,-3.3994,-3.3984,-3.3951,-3.3984,-3.3989,-3.3963,-3.4068,-3.4031,-3.4044,-3.4089,-3.4194,-3.4201,-3.4208,-3.4264,-3.4279,-3.4292,0,0,0,0,0,0,-3.3862,-3.3878,-3.3863,-3.3941,-3.3963,-3.3979,-3.402,-3.4001,-3.4032,-3.4025,-3.4011,-3.4016,-3.4084,-3.4093,-3.4052,-3.4172,-3.4125,-3.4135,-3.4164,-3.4178,-3.419,-3.4186,-3.4002,0,0,0,0,0,-3.3883,-3.3926,-3.3937,-3.4005,-3.4017,-3.4017,-3.4039,-3.403,-3.4052,-3.406,-3.407,-3.4092,-3.4129,-3.4154,-3.4189,-3.427,-3.4273,-3.4307,-3.4319,-3.4328,-3.4336,-3.4379,-3.4394,-3.4234,-3.4234,-3.4234,0,0,-3.3928,-3.3942,-3.397,-3.4017,-3.4032,-3.4076,-3.4025,-3.4073,-3.4104,-3.4067,-3.4129,-3.4137,-3.4159,-3.4232,-3.4265,-3.4242,-3.4381,-3.4337,-3.4344,-3.4348,-3.4387,-3.4402,-3.4416,-3.4239,-3.4238,-3.4237,0,0,-3.4031,-3.4046,-3.4104,-3.4121,-3.4145,-3.4145,-3.4158,-3.4177,-3.4181,-3.4242,-3.4215,-3.4252,-3.4317,-3.4334,-3.4351,-3.4459,-3.4437,-3.4471,-3.4531,-3.4572,-3.4584,-3.4596,-3.4634,-3.4647,-3.4479,-3.4479,-3.448,0,-3.4083,-3.4148,-3.4136,-3.4186,-3.4207,-3.4176,-3.4233,-3.425,-3.4284,-3.4299,-3.4273,-3.4353,-3.4366,-3.4442,-3.4468,-3.4483,-3.4498,-3.4469,-3.4584,-3.4595,-3.4605,-3.4641,-3.4655,-3.4483,-3.4483,-3.4483,-3.4482,0,-3.4211,-3.4256,-3.4299,-3.4334,-3.4359,-3.4413,-3.4408,-3.4435,-3.4423,-3.4424,-3.4487,-3.4501,-3.4538,-3.4555,-3.4544,-3.4629,-3.4614,-3.4586,-3.4539,-3.4624,-3.4658,-3.4672,-3.4489,-3.4488,-3.4487,-3.4486,0,0,-3.4352,-3.4378,-3.4394,-3.4409,-3.4433,-3.4467,-3.4518,-3.4555,-3.4578,-3.4602,-3.4644,-3.4699,-3.4673,-3.4693,-3.4683,-3.4719,-3.4802,-3.4686,-3.4686,-3.4707,-3.4896,-3.4917,-3.4934,-3.4787,-3.479,-3.4792,-3.4894,0,-3.4455,-3.4546,-3.4536,-3.4621,-3.4662,-3.4632,-3.4676,-3.4695,-3.4697,-3.4732,-3.4733,-3.4773,-3.4736,-3.4747,-3.4781,-3.4785,-3.484,-3.4777,-3.4826,-3.4827,-3.4821,-3.4951,-3.4974,-3.507,-3.4907,-3.491,-3.4911,0,-3.4589,-3.4618,-3.4708,-3.4725,-3.4742,-3.4782,-3.4814,-3.4847,-3.4867,-3.4866,-3.4887,-3.487,-3.492,-3.4872,-3.494,-3.4898,-3.4916,-3.4921,-3.4924,-3.4929,-3.4875,-3.4959,-3.51,-3.5115,-3.4932,-3.493,-3.4929,0,-3.4683,-3.4744,-3.4806,-3.4819,-3.484,-3.4869,-3.4879,-3.4896,-3.4918,-3.4946,-3.4959,-3.4992,-3.501,-3.5035,-3.5027,-3.4992,-3.5097,-3.5048,-3.5096,-3.5097,-3.512,-3.5119,-3.5267,-3.5132,-3.5132,-3.5132,-3.5132,0,-3.48,-3.4856,-3.4848,-3.4886,-3.4947,-3.4934,-3.4995,-3.5001,-3.5016,-3.5054,-3.5029,-3.5064,-3.5051,-3.5086,-3.5079,-3.5136,-3.5145,-3.5144,-3.5142,-3.5147,-3.5147,-3.5159,-3.5152,-3.5136,-3.5135,-3.5134,-3.5133,0,-3.4915,-3.4912,-3.4977,-3.4991,-3.4996,-3.504,-3.5052,-3.5087,-3.5086,-3.5134,-3.5144,-3.5144,-3.5183,-3.5177,-3.522,-3.5216,-3.5287,-3.5276,-3.528,-3.5278,-3.5327,-3.5323,-3.5488,-3.5509,-3.5361,-3.5363,-3.5364,0,-3.4991,-3.5033,-3.5051,-3.5075,-3.5087,-3.5125,-3.5147,-3.5136,-3.516,-3.5185,-3.5216,-3.5253,-3.5282,-3.5346,-3.5348,-3.5381,-3.5371,-3.5427,-3.5376,-3.5379,-3.5371,-3.5369,-3.5373,-3.5437,-3.5439,-3.544,-3.5441,0,-3.5124,-3.512,-3.5154,-3.5186,-3.5214,-3.5239,-3.5261,-3.5281,-3.5271,-3.5299,-3.5339,-3.5361,-3.5405,-3.5442,-3.5472,-3.5481,-3.5459,-3.5457,-3.547,-3.5475,-3.5476,-3.5476,-3.5308,-3.5453,-3.5452,-3.5451,-3.5451,-3.545,-3.5222,-3.5258,-3.5276,-3.5313,-3.5329,-3.535,-3.5383,-3.5387,-3.542,-3.5455,-3.5446,-3.549,-3.5507,-3.5546,-3.5558,-3.5592,-3.5571,-3.559,-3.5595,-3.56,-3.5606,-3.547,-3.5597,-3.5597,-3.5597,-3.5596,-3.5596,0,-3.5354,-3.5364,-3.5399,-3.5431,-3.546,-3.5437,-3.546,-3.5486,-3.5526,-3.5544,-3.5573,-3.5617,-3.5652,-3.5657,-3.569,-3.5716,-3.5707,-3.5725,-3.5723,-3.5725,-3.5623,-3.5608,-3.5732,-3.5732,-3.5732,-3.5732,-3.5732,-3.5732,-3.5426,-3.5485,-3.5483,-3.5549,-3.5558,-3.5603,-3.5618,-3.5636,-3.5651,-3.5702,-3.5731,-3.5734,-3.5747,-3.578,-3.581,-3.5811,-3.5824,-3.5846,-3.5842,-3.5746,-3.5733,-3.572,-3.5706,-3.5849,-3.5849,-3.5942,-3.5943,-3.5944]}]]